Погода в Кальмаре

Швеция     56°41′07″N   16°20′28″E
темп.,
°C
ветер,
м/с
пор.,
м/с
влажн.,
%
обл.,
%
осадки,
мм/ч
давл.,
гПа
погр.,
м
25 октября, пн
пн2523:00+6ююз3119341 0.0 1023332
02:00+6ююз4119043 0.0 1022400
05:00+6ююз310945 0.0 1020273
08:00+5ююз411945 0.0 1018298
11:00+10ююз410730 0.0 1017557
14:00+12ююз485982 0.0 1015750
17:00+9ююз4876100 0.0 1015309
20:00+7юз3991100 0.0 1014331
26 октября, вт
вт2623:00+6юз3896100 0.0 1014247
02:00+7юз3891100 0.0 1013261
05:00+8юз3893100 0.2 1012317
08:00+8юз3896100 0.2 1012381
11:00+10юз4985100 0.1 1011855
14:00+10зюз3788100 1.1 1010355
17:00+10зюз4985100 0.0 1011553
20:00+8зюз411903 0.0 1013501
27 октября, ср
ср2723:00+7зюз4129275 0.0 1014456
02:00+6юз311955 0.0 1014350
05:00+6юз31096100 0.0 1014268
08:00+9ююз41295100 0.8 1012626
11:00+11юз51394100 0.8 1011893
14:00+13юз61587100 0.8 10101161
17:00+14зюз71582100 0.0 10101126
20:00+13зюз61587100 0.0 1011982
28 октября, чт
чт2823:00+13зюз61488100 0.0 1013803
02:00+13зюз51389100 0.1 1014815
05:00+13зюз41190100 0.0 1015646
08:00+13юз41092100 0.0 1016622
11:00+14юз4979100 0.0 1017700
14:00+16юз4117299 0.0 1017669
17:00+13юз4107999 0.0 1017405
20:00+11юз3128612 0.0 1018334
29 октября, пт
пт2923:00+10ююз3129129 0.0 1019318
02:00+9ююз299623 0.0 1018231
05:00+9ю310945 0.0 1017215
08:00+9ю310955 0.0 1017228
11:00+12ю4117713 0.0 1016446
14:00+13ю510686 0.0 1015552
17:00+10ю51177100 0.0 1014494
20:00+8ююз3118459 0.0 1013340